contact:dominique.lefevre@mio.osupytheas.fr, maurice.libes@osupytheas.fr, didier.mallarino@osupytheas.fr
Project:EMSO http://www.emso-fr.org/EMSO-France
Depth: 2436.0 m
Title:EMSO Ligure Ouest : Data MII capteur MICROCAT
DateTime_Computer,Latitude,Longitude,Temperature,Conductivity,Pressure,DateTime_Instrument
DateTime_Computer,Latitude,Longitude,degC,S m-1,dbar,DateTime_Instrument
2022-04-17T00:02:14Z,42.805,6.029,13.3014,4.60046,2470.297,2022-4-17T02:03:52Z
2022-04-17T00:05:17Z,42.805,6.029,13.3011,4.60042,2470.31,2022-4-17T02:06:55Z
2022-04-17T00:08:20Z,42.805,6.029,13.3015,4.60044,2470.273,2022-4-17T02:09:58Z
2022-04-17T00:11:23Z,42.805,6.029,13.3002,4.60046,2470.264,2022-4-17T02:13:02Z
2022-04-17T00:14:26Z,42.805,6.029,13.3009,4.60042,2470.25,2022-4-17T02:16:05Z
2022-04-17T00:17:29Z,42.805,6.029,13.3011,4.60049,2470.25,2022-4-17T02:19:08Z
2022-04-17T00:20:32Z,42.805,6.029,13.3014,4.60046,2470.25,2022-4-17T02:22:11Z
2022-04-17T00:23:36Z,42.805,6.029,13.3003,4.60054,2470.273,2022-4-17T02:25:14Z
2022-04-17T00:26:39Z,42.805,6.029,13.3006,4.60048,2470.273,2022-4-17T02:28:17Z
2022-04-17T00:29:42Z,42.805,6.029,13.3005,4.60046,2470.273,2022-4-17T02:31:20Z
2022-04-17T00:32:45Z,42.805,6.029,13.3005,4.60053,2470.25,2022-4-17T02:34:23Z
2022-04-17T00:35:48Z,42.805,6.029,13.3004,4.60042,2470.273,2022-4-17T02:37:27Z
2022-04-17T00:38:51Z,42.805,6.029,13.3006,4.60047,2470.25,2022-4-17T02:40:30Z
2022-04-17T00:41:54Z,42.805,6.029,13.3009,4.60046,2470.264,2022-4-17T02:43:33Z
2022-04-17T00:44:57Z,42.805,6.029,13.3013,4.60049,2470.25,2022-4-17T02:46:36Z
2022-04-17T00:48:01Z,42.805,6.029,13.3011,4.60044,2470.24,2022-4-17T02:49:39Z
2022-04-17T00:51:04Z,42.805,6.029,13.3009,4.60044,2470.273,2022-4-17T02:52:42Z
2022-04-17T00:54:07Z,42.805,6.029,13.3006,4.60045,2470.25,2022-4-17T02:55:45Z
2022-04-17T00:57:10Z,42.805,6.029,13.3007,4.60042,2470.25,2022-4-17T02:58:48Z
2022-04-17T01:00:13Z,42.805,6.029,13.3003,4.60043,2470.227,2022-4-17T03:01:52Z
2022-04-17T01:03:16Z,42.805,6.029,13.3011,4.60040,2470.264,2022-4-17T03:04:55Z
2022-04-17T01:06:19Z,42.805,6.029,13.3001,4.60049,2470.227,2022-4-17T03:07:58Z
2022-04-17T01:09:22Z,42.805,6.029,13.3002,4.60048,2470.24,2022-4-17T03:11:01Z
2022-04-17T01:12:26Z,42.805,6.029,13.3003,4.60048,2470.25,2022-4-17T03:14:04Z
2022-04-17T01:15:29Z,42.805,6.029,13.3001,4.60045,2470.25,2022-4-17T03:17:07Z
2022-04-17T01:18:32Z,42.805,6.029,13.3000,4.60050,2470.25,2022-4-17T03:20:10Z
2022-04-17T01:21:35Z,42.805,6.029,13.3001,4.60046,2470.26,2022-4-17T03:23:13Z
2022-04-17T01:24:38Z,42.805,6.029,13.3002,4.60044,2470.25,2022-4-17T03:26:17Z
2022-04-17T01:27:41Z,42.805,6.029,13.3003,4.60045,2470.25,2022-4-17T03:29:20Z
2022-04-17T01:30:44Z,42.805,6.029,13.3000,4.60071,2470.24,2022-4-17T03:32:23Z
2022-04-17T01:33:47Z,42.805,6.029,13.3002,4.60054,2470.227,2022-4-17T03:35:26Z
2022-04-17T01:36:50Z,42.805,6.029,13.3004,4.60046,2470.25,2022-4-17T03:38:29Z
2022-04-17T01:39:54Z,42.805,6.029,13.3004,4.60047,2470.25,2022-4-17T03:41:32Z
2022-04-17T01:42:57Z,42.805,6.029,13.3002,4.60062,2470.25,2022-4-17T03:44:35Z
2022-04-17T01:46:00Z,42.805,6.029,13.3004,4.60060,2470.264,2022-4-17T03:47:38Z
2022-04-17T01:49:03Z,42.805,6.029,13.3001,4.60064,2470.25,2022-4-17T03:50:41Z
2022-04-17T01:52:06Z,42.805,6.029,13.3004,4.60063,2470.227,2022-4-17T03:53:45Z
2022-04-17T01:55:09Z,42.805,6.029,13.3001,4.60063,2470.273,2022-4-17T03:56:48Z
2022-04-17T01:58:12Z,42.805,6.029,13.3004,4.60048,2470.264,2022-4-17T03:59:51Z
2022-04-17T02:01:15Z,42.805,6.029,13.3004,4.60045,2470.287,2022-4-17T04:02:54Z
2022-04-17T02:04:19Z,42.805,6.029,13.3009,4.60053,2470.24,2022-4-17T04:05:57Z
2022-04-17T02:07:22Z,42.805,6.029,13.2997,4.60050,2470.227,2022-4-17T04:09:00Z
2022-04-17T02:10:25Z,42.805,6.029,13.3004,4.60052,2470.203,2022-4-17T04:12:03Z
2022-04-17T02:13:28Z,42.805,6.029,13.3002,4.60047,2470.203,2022-4-17T04:15:06Z
2022-04-17T02:16:31Z,42.805,6.029,13.3001,4.60049,2470.24,2022-4-17T04:18:10Z
2022-04-17T02:19:34Z,42.805,6.029,13.3000,4.60045,2470.24,2022-4-17T04:21:13Z
2022-04-17T02:22:37Z,42.805,6.029,13.3004,4.60043,2470.227,2022-4-17T04:24:16Z
2022-04-17T02:25:40Z,42.805,6.029,13.3002,4.60055,2470.25,2022-4-17T04:27:19Z
2022-04-17T02:28:43Z,42.805,6.029,13.3001,4.60046,2470.227,2022-4-17T04:30:22Z
2022-04-17T02:31:47Z,42.805,6.029,13.3002,4.60051,2470.25,2022-4-17T04:33:25Z
2022-04-17T02:34:50Z,42.805,6.029,13.3004,4.60049,2470.264,2022-4-17T04:36:28Z
2022-04-17T02:37:53Z,42.805,6.029,13.2996,4.60040,2470.227,2022-4-17T04:39:31Z
2022-04-17T02:40:56Z,42.805,6.029,13.3001,4.60042,2470.227,2022-4-17T04:42:35Z
2022-04-17T02:43:59Z,42.805,6.029,13.3006,4.60042,2470.25,2022-4-17T04:45:38Z
2022-04-17T02:47:02Z,42.805,6.029,13.3001,4.60042,2470.25,2022-4-17T04:48:41Z
2022-04-17T02:50:05Z,42.805,6.029,13.3000,4.60045,2470.25,2022-4-17T04:51:44Z
2022-04-17T02:53:08Z,42.805,6.029,13.3003,4.60043,2470.287,2022-4-17T04:54:47Z
2022-04-17T02:56:12Z,42.805,6.029,13.3004,4.60054,2470.25,2022-4-17T04:57:50Z
2022-04-17T02:59:15Z,42.805,6.029,13.3000,4.60051,2470.24,2022-4-17T05:00:53Z
2022-04-17T03:02:18Z,42.805,6.029,13.3000,4.60053,2470.227,2022-4-17T05:03:56Z
2022-04-17T03:05:21Z,42.805,6.029,13.3006,4.60048,2470.25,2022-4-17T05:07:00Z
2022-04-17T03:08:24Z,42.805,6.029,13.3003,4.60046,2470.25,2022-4-17T05:10:03Z
2022-04-17T03:11:27Z,42.805,6.029,13.3004,4.60043,2470.273,2022-4-17T05:13:06Z
2022-04-17T03:14:30Z,42.805,6.029,13.3004,4.60047,2470.25,2022-4-17T05:16:09Z
2022-04-17T03:17:33Z,42.805,6.029,13.3001,4.60045,2470.287,2022-4-17T05:19:12Z
2022-04-17T03:20:37Z,42.805,6.029,13.3003,4.60040,2470.25,2022-4-17T05:22:15Z
2022-04-17T03:23:40Z,42.805,6.029,13.3000,4.60044,2470.213,2022-4-17T05:25:18Z
2022-04-17T03:26:43Z,42.805,6.029,13.3001,4.60049,2470.273,2022-4-17T05:28:21Z
2022-04-17T03:29:46Z,42.805,6.029,13.3005,4.60048,2470.24,2022-4-17T05:31:24Z
2022-04-17T03:32:49Z,42.805,6.029,13.3002,4.60046,2470.273,2022-4-17T05:34:28Z
2022-04-17T03:35:52Z,42.805,6.029,13.3005,4.60044,2470.287,2022-4-17T05:37:31Z
2022-04-17T03:38:55Z,42.805,6.029,13.3004,4.60044,2470.227,2022-4-17T05:40:34Z
2022-04-17T03:41:58Z,42.805,6.029,13.2998,4.60046,2470.297,2022-4-17T05:43:37Z
2022-04-17T03:45:02Z,42.805,6.029,13.3002,4.60040,2470.287,2022-4-17T05:46:40Z
2022-04-17T03:48:05Z,42.805,6.029,13.3001,4.60045,2470.264,2022-4-17T05:49:43Z
2022-04-17T03:51:08Z,42.805,6.029,13.3000,4.60049,2470.32,2022-4-17T05:52:46Z
2022-04-17T03:54:11Z,42.805,6.029,13.3000,4.60043,2470.31,2022-4-17T05:55:49Z
2022-04-17T03:57:14Z,42.805,6.029,13.3006,4.60041,2470.273,2022-4-17T05:58:53Z
2022-04-17T04:00:17Z,42.805,6.029,13.3003,4.60046,2470.297,2022-4-17T06:01:56Z
2022-04-17T04:03:20Z,42.805,6.029,13.3001,4.60041,2470.343,2022-4-17T06:04:59Z
2022-04-17T04:06:23Z,42.805,6.029,13.3002,4.60043,2470.32,2022-4-17T06:08:02Z
2022-04-17T04:09:26Z,42.805,6.029,13.3002,4.60041,2470.25,2022-4-17T06:11:05Z
2022-04-17T04:12:30Z,42.805,6.029,13.3003,4.60041,2470.297,2022-4-17T06:14:08Z
2022-04-17T04:15:33Z,42.805,6.029,13.3002,4.60044,2470.297,2022-4-17T06:17:11Z
2022-04-17T04:18:36Z,42.805,6.029,13.3001,4.60041,2470.32,2022-4-17T06:20:14Z
2022-04-17T04:21:39Z,42.805,6.029,13.3003,4.60041,2470.334,2022-4-17T06:23:18Z
2022-04-17T04:24:42Z,42.805,6.029,13.3002,4.60043,2470.334,2022-4-17T06:26:21Z
2022-04-17T04:27:45Z,42.805,6.029,13.3001,4.60039,2470.343,2022-4-17T06:29:24Z
2022-04-17T04:30:48Z,42.805,6.029,13.3004,4.60040,2470.357,2022-4-17T06:32:27Z
2022-04-17T04:33:51Z,42.805,6.029,13.3001,4.60040,2470.366,2022-4-17T06:35:30Z
2022-04-17T04:36:55Z,42.805,6.029,13.2998,4.60040,2470.366,2022-4-17T06:38:33Z
2022-04-17T04:39:58Z,42.805,6.029,13.3002,4.60041,2470.357,2022-4-17T06:41:36Z
2022-04-17T04:43:01Z,42.805,6.029,13.3000,4.60043,2470.334,2022-4-17T06:44:39Z
2022-04-17T04:46:04Z,42.805,6.029,13.3000,4.60039,2470.366,2022-4-17T06:47:43Z
2022-04-17T04:49:07Z,42.805,6.029,13.3003,4.60041,2470.366,2022-4-17T06:50:46Z
2022-04-17T04:52:10Z,42.805,6.029,13.3003,4.60039,2470.366,2022-4-17T06:53:49Z
2022-04-17T04:55:13Z,42.805,6.029,13.3006,4.60043,2470.366,2022-4-17T06:56:52Z
2022-04-17T04:58:16Z,42.805,6.029,13.3004,4.60043,2470.343,2022-4-17T06:59:55Z
2022-04-17T05:01:20Z,42.805,6.029,13.3000,4.60039,2470.366,2022-4-17T07:02:58Z
2022-04-17T05:04:23Z,42.805,6.029,13.3004,4.60039,2470.39,2022-4-17T07:06:01Z
2022-04-17T05:07:26Z,42.805,6.029,13.3000,4.60041,2470.366,2022-4-17T07:09:04Z
2022-04-17T05:10:29Z,42.805,6.029,13.3003,4.60043,2470.343,2022-4-17T07:12:07Z
2022-04-17T05:13:32Z,42.805,6.029,13.3000,4.60039,2470.343,2022-4-17T07:15:11Z
2022-04-17T05:16:35Z,42.805,6.029,13.3003,4.60041,2470.39,2022-4-17T07:18:14Z
2022-04-17T05:19:38Z,42.805,6.029,13.3002,4.60040,2470.39,2022-4-17T07:21:17Z
2022-04-17T05:22:41Z,42.805,6.029,13.3004,4.60041,2470.38,2022-4-17T07:24:20Z
2022-04-17T05:25:45Z,42.805,6.029,13.3006,4.60041,2470.413,2022-4-17T07:27:23Z
2022-04-17T05:28:48Z,42.805,6.029,13.3004,4.60039,2470.413,2022-4-17T07:30:26Z
2022-04-17T05:31:51Z,42.805,6.029,13.3003,4.60039,2470.39,2022-4-17T07:33:29Z
2022-04-17T05:34:54Z,42.805,6.029,13.3004,4.60039,2470.39,2022-4-17T07:36:32Z
2022-04-17T05:37:57Z,42.805,6.029,13.3005,4.60039,2470.427,2022-4-17T07:39:36Z
2022-04-17T05:41:00Z,42.805,6.029,13.3002,4.60042,2470.39,2022-4-17T07:42:39Z
2022-04-17T05:44:03Z,42.805,6.029,13.3002,4.60041,2470.437,2022-4-17T07:45:42Z
2022-04-17T05:47:06Z,42.805,6.029,13.3000,4.60039,2470.437,2022-4-17T07:48:45Z
2022-04-17T05:50:09Z,42.805,6.029,13.3005,4.60041,2470.45,2022-4-17T07:51:48Z
2022-04-17T05:53:13Z,42.805,6.029,13.3002,4.60043,2470.437,2022-4-17T07:54:51Z
2022-04-17T05:56:16Z,42.805,6.029,13.3000,4.60040,2470.437,2022-4-17T07:57:54Z
2022-04-17T05:59:19Z,42.805,6.029,13.3002,4.60040,2470.46,2022-4-17T08:00:57Z
2022-04-17T06:02:22Z,42.805,6.029,13.3004,4.60040,2470.427,2022-4-17T08:04:01Z
2022-04-17T06:05:25Z,42.805,6.029,13.3003,4.60040,2470.437,2022-4-17T08:07:04Z
2022-04-17T06:08:28Z,42.805,6.029,13.3002,4.60039,2470.497,2022-4-17T08:10:07Z
2022-04-17T06:11:31Z,42.805,6.029,13.3003,4.60042,2470.427,2022-4-17T08:13:10Z
2022-04-17T06:14:34Z,42.805,6.029,13.3002,4.60039,2470.46,2022-4-17T08:16:13Z
2022-04-17T06:17:38Z,42.805,6.029,13.3002,4.60039,2470.437,2022-4-17T08:19:16Z
2022-04-17T06:20:41Z,42.805,6.029,13.3001,4.60039,2470.45,2022-4-17T08:22:19Z
2022-04-17T06:23:44Z,42.805,6.029,13.3003,4.60040,2470.437,2022-4-17T08:25:22Z
2022-04-17T06:26:47Z,42.805,6.029,13.3005,4.60039,2470.483,2022-4-17T08:28:26Z
2022-04-17T06:29:50Z,42.805,6.029,13.3002,4.60038,2470.437,2022-4-17T08:31:29Z
2022-04-17T06:32:53Z,42.805,6.029,13.2999,4.60043,2470.46,2022-4-17T08:34:32Z
2022-04-17T06:35:56Z,42.805,6.029,13.3004,4.60039,2470.497,2022-4-17T08:37:35Z
2022-04-17T06:38:59Z,42.805,6.029,13.3004,4.60039,2470.483,2022-4-17T08:40:38Z
2022-04-17T06:42:03Z,42.805,6.029,13.3002,4.60038,2470.483,2022-4-17T08:43:41Z
2022-04-17T06:45:06Z,42.805,6.029,13.3001,4.60038,2470.497,2022-4-17T08:46:44Z
2022-04-17T06:48:09Z,42.805,6.029,13.3000,4.60038,2470.474,2022-4-17T08:49:47Z
2022-04-17T06:51:12Z,42.805,6.029,13.3002,4.60039,2470.497,2022-4-17T08:52:50Z
2022-04-17T06:54:15Z,42.805,6.029,13.3004,4.60042,2470.497,2022-4-17T08:55:54Z
2022-04-17T06:57:18Z,42.805,6.029,13.3003,4.60042,2470.507,2022-4-17T08:58:57Z
2022-04-17T07:00:21Z,42.805,6.029,13.3004,4.60037,2470.46,2022-4-17T09:02:00Z
2022-04-17T07:03:24Z,42.805,6.029,13.3004,4.60037,2470.46,2022-4-17T09:05:03Z
2022-04-17T07:06:27Z,42.805,6.029,13.3000,4.60038,2470.53,2022-4-17T09:08:06Z
2022-04-17T07:09:31Z,42.805,6.029,13.2999,4.60037,2470.507,2022-4-17T09:11:09Z
2022-04-17T07:12:34Z,42.805,6.029,13.3000,4.60039,2470.46,2022-4-17T09:14:12Z
2022-04-17T07:15:37Z,42.805,6.029,13.3001,4.60045,2470.483,2022-4-17T09:17:15Z
2022-04-17T07:18:40Z,42.805,6.029,13.3000,4.60040,2470.497,2022-4-17T09:20:19Z
2022-04-17T07:21:43Z,42.805,6.029,13.3002,4.60041,2470.497,2022-4-17T09:23:22Z
2022-04-17T07:24:46Z,42.805,6.029,13.3002,4.60039,2470.483,2022-4-17T09:26:25Z
2022-04-17T07:27:49Z,42.805,6.029,13.3003,4.60038,2470.46,2022-4-17T09:29:28Z
2022-04-17T07:30:52Z,42.805,6.029,13.3000,4.60040,2470.52,2022-4-17T09:32:31Z
2022-04-17T07:33:56Z,42.805,6.029,13.3002,4.60041,2470.483,2022-4-17T09:35:34Z
2022-04-17T07:36:59Z,42.805,6.029,13.3000,4.60039,2470.483,2022-4-17T09:38:37Z
2022-04-17T07:40:02Z,42.805,6.029,13.2999,4.60038,2470.46,2022-4-17T09:41:40Z
2022-04-17T07:43:05Z,42.805,6.029,13.3003,4.60037,2470.507,2022-4-17T09:44:44Z
2022-04-17T07:46:08Z,42.805,6.029,13.2998,4.60039,2470.483,2022-4-17T09:47:47Z
2022-04-17T07:49:11Z,42.805,6.029,13.3002,4.60040,2470.497,2022-4-17T09:50:50Z
2022-04-17T07:52:14Z,42.805,6.029,13.3001,4.60039,2470.53,2022-4-17T09:53:53Z
2022-04-17T07:55:17Z,42.805,6.029,13.2999,4.60042,2470.483,2022-4-17T09:56:56Z
2022-04-17T07:58:21Z,42.805,6.029,13.3004,4.60036,2470.474,2022-4-17T09:59:59Z
2022-04-17T08:01:24Z,42.805,6.029,13.3001,4.60038,2470.46,2022-4-17T10:03:02Z
2022-04-17T08:04:27Z,42.805,6.029,13.3004,4.60039,2470.483,2022-4-17T10:06:05Z
2022-04-17T08:07:30Z,42.805,6.029,13.3000,4.60038,2470.483,2022-4-17T10:09:09Z
2022-04-17T08:10:33Z,42.805,6.029,13.3004,4.60039,2470.474,2022-4-17T10:12:12Z
2022-04-17T08:13:36Z,42.805,6.029,13.3001,4.60046,2470.497,2022-4-17T10:15:15Z
2022-04-17T08:16:39Z,42.805,6.029,13.3002,4.60044,2470.497,2022-4-17T10:18:18Z
2022-04-17T08:19:42Z,42.805,6.029,13.3005,4.60039,2470.423,2022-4-17T10:21:21Z
2022-04-17T08:22:46Z,42.805,6.029,13.3000,4.60039,2470.45,2022-4-17T10:24:24Z
2022-04-17T08:25:49Z,42.805,6.029,13.3003,4.60038,2470.474,2022-4-17T10:27:27Z
2022-04-17T08:28:52Z,42.805,6.029,13.3002,4.60036,2470.46,2022-4-17T10:30:30Z
2022-04-17T08:31:55Z,42.805,6.029,13.3000,4.60039,2470.46,2022-4-17T10:33:34Z
2022-04-17T08:34:58Z,42.805,6.029,13.3006,4.60041,2470.446,2022-4-17T10:36:37Z
2022-04-17T08:38:01Z,42.805,6.029,13.3004,4.60040,2470.46,2022-4-17T10:39:40Z
2022-04-17T08:41:04Z,42.805,6.029,13.3004,4.60039,2470.45,2022-4-17T10:42:43Z
2022-04-17T08:44:07Z,42.805,6.029,13.3004,4.60038,2470.46,2022-4-17T10:45:46Z
2022-04-17T08:47:11Z,42.805,6.029,13.3002,4.60038,2470.46,2022-4-17T10:48:49Z
2022-04-17T08:50:14Z,42.805,6.029,13.3001,4.60037,2470.437,2022-4-17T10:51:52Z
2022-04-17T08:53:17Z,42.805,6.029,13.3001,4.60036,2470.474,2022-4-17T10:54:55Z
2022-04-17T08:56:20Z,42.805,6.029,13.3000,4.60036,2470.46,2022-4-17T10:57:59Z
2022-04-17T08:59:23Z,42.805,6.029,13.3001,4.60037,2470.437,2022-4-17T11:01:02Z
2022-04-17T09:02:26Z,42.805,6.029,13.3001,4.60037,2470.45,2022-4-17T11:04:05Z
2022-04-17T09:05:29Z,42.805,6.029,13.3002,4.60037,2470.46,2022-4-17T11:07:08Z
2022-04-17T09:08:32Z,42.805,6.029,13.3004,4.60038,2470.437,2022-4-17T11:10:11Z
2022-04-17T09:11:36Z,42.805,6.029,13.3001,4.60038,2470.46,2022-4-17T11:13:14Z
2022-04-17T09:14:39Z,42.805,6.029,13.3004,4.60038,2470.45,2022-4-17T11:16:17Z
2022-04-17T09:17:42Z,42.805,6.029,13.3001,4.60038,2470.423,2022-4-17T11:19:20Z
2022-04-17T09:20:45Z,42.805,6.029,13.3002,4.60037,2470.437,2022-4-17T11:22:24Z
2022-04-17T09:23:48Z,42.805,6.029,13.3002,4.60038,2470.45,2022-4-17T11:25:27Z
2022-04-17T09:26:51Z,42.805,6.029,13.3000,4.60037,2470.45,2022-4-17T11:28:30Z
2022-04-17T09:29:54Z,42.805,6.029,13.3002,4.60041,2470.437,2022-4-17T11:31:33Z
2022-04-17T09:32:57Z,42.805,6.029,13.2999,4.60037,2470.45,2022-4-17T11:34:36Z
2022-04-17T09:36:01Z,42.805,6.029,13.2998,4.60037,2470.413,2022-4-17T11:37:39Z
2022-04-17T09:39:04Z,42.805,6.029,13.3002,4.60036,2470.437,2022-4-17T11:40:42Z
2022-04-17T09:42:07Z,42.805,6.029,13.3003,4.60037,2470.427,2022-4-17T11:43:45Z
2022-04-17T09:45:10Z,42.805,6.029,13.3004,4.60038,2470.437,2022-4-17T11:46:49Z
2022-04-17T09:48:13Z,42.805,6.029,13.3000,4.60040,2470.427,2022-4-17T11:49:52Z
2022-04-17T09:51:16Z,42.805,6.029,13.2998,4.60038,2470.46,2022-4-17T11:52:55Z
2022-04-17T09:54:19Z,42.805,6.029,13.3002,4.60039,2470.39,2022-4-17T11:55:58Z
2022-04-17T09:57:23Z,42.805,6.029,13.3003,4.60039,2470.413,2022-4-17T11:59:01Z
2022-04-17T10:00:26Z,42.805,6.029,13.3000,4.60037,2470.437,2022-4-17T12:02:04Z
2022-04-17T10:03:29Z,42.805,6.029,13.3004,4.60038,2470.413,2022-4-17T12:05:07Z
2022-04-17T10:06:32Z,42.805,6.029,13.3007,4.60037,2470.39,2022-4-17T12:08:10Z
2022-04-17T10:09:35Z,42.805,6.029,13.3000,4.60039,2470.413,2022-4-17T12:11:14Z
2022-04-17T10:12:38Z,42.805,6.029,13.2998,4.60038,2470.404,2022-4-17T12:14:17Z
2022-04-17T10:15:41Z,42.805,6.029,13.3002,4.60036,2470.413,2022-4-17T12:17:20Z
2022-04-17T10:18:44Z,42.805,6.029,13.3000,4.60037,2470.404,2022-4-17T12:20:23Z
2022-04-17T10:21:47Z,42.805,6.029,13.3004,4.60037,2470.413,2022-4-17T12:23:26Z
2022-04-17T10:24:51Z,42.805,6.029,13.3002,4.60036,2470.366,2022-4-17T12:26:29Z
2022-04-17T10:27:54Z,42.805,6.029,13.3003,4.60036,2470.413,2022-4-17T12:29:32Z
2022-04-17T10:30:57Z,42.805,6.029,13.3002,4.60036,2470.404,2022-4-17T12:32:35Z
2022-04-17T10:34:00Z,42.805,6.029,13.3004,4.60037,2470.366,2022-4-17T12:35:39Z
2022-04-17T10:37:03Z,42.805,6.029,13.3003,4.60037,2470.39,2022-4-17T12:38:42Z
2022-04-17T10:40:06Z,42.805,6.029,13.3002,4.60038,2470.366,2022-4-17T12:41:45Z
2022-04-17T10:43:09Z,42.805,6.029,13.3000,4.60039,2470.38,2022-4-17T12:44:48Z
2022-04-17T10:46:13Z,42.805,6.029,13.3000,4.60037,2470.404,2022-4-17T12:47:51Z
2022-04-17T10:49:16Z,42.805,6.029,13.3004,4.60037,2470.38,2022-4-17T12:50:54Z
2022-04-17T10:52:19Z,42.805,6.029,13.3005,4.60038,2470.343,2022-4-17T12:53:57Z
2022-04-17T10:55:22Z,42.805,6.029,13.3001,4.60035,2470.39,2022-4-17T12:57:00Z
2022-04-17T10:58:25Z,42.805,6.029,13.3003,4.60037,2470.366,2022-4-17T13:00:04Z
2022-04-17T11:01:28Z,42.805,6.029,13.3002,4.60038,2470.366,2022-4-17T13:03:07Z
2022-04-17T11:04:31Z,42.805,6.029,13.3003,4.60035,2470.38,2022-4-17T13:06:10Z
2022-04-17T11:07:34Z,42.805,6.029,13.3000,4.60037,2470.366,2022-4-17T13:09:13Z
2022-04-17T11:10:37Z,42.805,6.029,13.3001,4.60036,2470.343,2022-4-17T13:12:16Z
2022-04-17T11:13:41Z,42.805,6.029,13.2998,4.60036,2470.38,2022-4-17T13:15:19Z
2022-04-17T11:16:44Z,42.805,6.029,13.3000,4.60037,2470.366,2022-4-17T13:18:22Z
2022-04-17T11:19:47Z,42.805,6.029,13.2999,4.60036,2470.343,2022-4-17T13:21:25Z
2022-04-17T11:22:50Z,42.805,6.029,13.3000,4.60036,2470.357,2022-4-17T13:24:29Z
2022-04-17T11:25:53Z,42.805,6.029,13.3000,4.60036,2470.357,2022-4-17T13:27:32Z
2022-04-17T11:28:56Z,42.805,6.029,13.3000,4.60038,2470.343,2022-4-17T13:30:35Z
2022-04-17T11:31:59Z,42.805,6.029,13.2998,4.60036,2470.366,2022-4-17T13:33:38Z
2022-04-17T11:35:03Z,42.805,6.029,13.2999,4.60036,2470.343,2022-4-17T13:36:41Z
2022-04-17T11:38:06Z,42.805,6.029,13.2999,4.60036,2470.334,2022-4-17T13:39:44Z
2022-04-17T11:41:09Z,42.805,6.029,13.3002,4.60036,2470.32,2022-4-17T13:42:47Z
2022-04-17T11:44:12Z,42.805,6.029,13.3004,4.60037,2470.366,2022-4-17T13:45:51Z
2022-04-17T11:47:15Z,42.805,6.029,13.3000,4.60037,2470.357,2022-4-17T13:48:54Z
2022-04-17T11:50:18Z,42.805,6.029,13.3001,4.60038,2470.32,2022-4-17T13:51:57Z
2022-04-17T11:53:21Z,42.805,6.029,13.3000,4.60036,2470.297,2022-4-17T13:55:00Z
2022-04-17T11:56:24Z,42.805,6.029,13.3000,4.60037,2470.334,2022-4-17T13:58:03Z
2022-04-17T11:59:28Z,42.805,6.029,13.2998,4.60039,2470.334,2022-4-17T14:01:06Z
2022-04-17T12:02:31Z,42.805,6.029,13.2998,4.60047,2470.334,2022-4-17T14:04:09Z
2022-04-17T12:05:34Z,42.805,6.029,13.3006,4.60036,2470.287,2022-4-17T14:07:12Z
2022-04-17T12:08:37Z,42.805,6.029,13.2997,4.60037,2470.32,2022-4-17T14:10:15Z
2022-04-17T12:11:40Z,42.805,6.029,13.3001,4.60036,2470.32,2022-4-17T14:13:19Z
2022-04-17T12:14:43Z,42.805,6.029,13.3000,4.60036,2470.32,2022-4-17T14:16:22Z
2022-04-17T12:17:46Z,42.805,6.029,13.3001,4.60036,2470.31,2022-4-17T14:19:25Z
2022-04-17T12:20:49Z,42.805,6.029,13.3000,4.60036,2470.26,2022-4-17T14:22:28Z
2022-04-17T12:23:53Z,42.805,6.029,13.3001,4.60036,2470.297,2022-4-17T14:25:31Z
2022-04-17T12:26:56Z,42.805,6.029,13.3000,4.60044,2470.297,2022-4-17T14:28:34Z
2022-04-17T12:29:59Z,42.805,6.029,13.2999,4.60036,2470.334,2022-4-17T14:31:37Z
2022-04-17T12:33:02Z,42.805,6.029,13.3000,4.60044,2470.31,2022-4-17T14:34:41Z
2022-04-17T12:36:05Z,42.805,6.029,13.3004,4.60039,2470.297,2022-4-17T14:37:44Z
2022-04-17T12:39:08Z,42.805,6.029,13.3004,4.60038,2470.273,2022-4-17T14:40:47Z
2022-04-17T12:42:11Z,42.805,6.029,13.3000,4.60036,2470.31,2022-4-17T14:43:50Z
2022-04-17T12:45:14Z,42.805,6.029,13.3000,4.60035,2470.31,2022-4-17T14:46:53Z
2022-04-17T12:48:18Z,42.805,6.029,13.3001,4.60036,2470.287,2022-4-17T14:49:56Z
2022-04-17T12:51:21Z,42.805,6.029,13.2998,4.60041,2470.287,2022-4-17T14:52:59Z
2022-04-17T12:54:24Z,42.805,6.029,13.2999,4.60035,2470.297,2022-4-17T14:56:02Z
2022-04-17T12:57:27Z,42.805,6.029,13.3004,4.60036,2470.264,2022-4-17T14:59:06Z
2022-04-17T13:00:30Z,42.805,6.029,13.2999,4.60038,2470.273,2022-4-17T15:02:09Z
2022-04-17T13:03:33Z,42.805,6.029,13.2999,4.60038,2470.273,2022-4-17T15:05:12Z
2022-04-17T13:06:36Z,42.805,6.029,13.3001,4.60036,2470.287,2022-4-17T15:08:15Z
2022-04-17T13:09:39Z,42.805,6.029,13.3001,4.60039,2470.287,2022-4-17T15:11:18Z
2022-04-17T13:12:43Z,42.805,6.029,13.2998,4.60036,2470.264,2022-4-17T15:14:21Z
2022-04-17T13:15:46Z,42.805,6.029,13.3001,4.60038,2470.287,2022-4-17T15:17:24Z
2022-04-17T13:18:49Z,42.805,6.029,13.3000,4.60036,2470.273,2022-4-17T15:20:27Z
2022-04-17T13:21:52Z,42.805,6.029,13.2999,4.60036,2470.273,2022-4-17T15:23:31Z
2022-04-17T13:24:55Z,42.805,6.029,13.3002,4.60036,2470.273,2022-4-17T15:26:34Z
2022-04-17T13:27:58Z,42.805,6.029,13.3000,4.60035,2470.264,2022-4-17T15:29:37Z
2022-04-17T13:31:01Z,42.805,6.029,13.3004,4.60040,2470.25,2022-4-17T15:32:40Z
2022-04-17T13:34:04Z,42.805,6.029,13.3000,4.60035,2470.287,2022-4-17T15:35:43Z
2022-04-17T13:37:08Z,42.805,6.029,13.3001,4.60036,2470.24,2022-4-17T15:38:46Z
2022-04-17T13:40:11Z,42.805,6.029,13.2998,4.60038,2470.227,2022-4-17T15:41:49Z
2022-04-17T13:43:14Z,42.805,6.029,13.3003,4.60036,2470.273,2022-4-17T15:44:52Z
2022-04-17T13:46:17Z,42.805,6.029,13.3001,4.60036,2470.227,2022-4-17T15:47:56Z
2022-04-17T13:49:20Z,42.805,6.029,13.2998,4.60039,2470.25,2022-4-17T15:50:59Z
2022-04-17T13:52:23Z,42.805,6.029,13.3000,4.60035,2470.287,2022-4-17T15:54:02Z
2022-04-17T13:55:26Z,42.805,6.029,13.3004,4.60035,2470.25,2022-4-17T15:57:05Z
2022-04-17T13:58:29Z,42.805,6.029,13.3000,4.60036,2470.25,2022-4-17T16:00:08Z
2022-04-17T14:01:33Z,42.805,6.029,13.3000,4.60037,2470.227,2022-4-17T16:03:11Z
2022-04-17T14:04:36Z,42.805,6.029,13.2999,4.60043,2470.273,2022-4-17T16:06:14Z
2022-04-17T14:07:39Z,42.805,6.029,13.3003,4.60036,2470.287,2022-4-17T16:09:17Z
2022-04-17T14:10:42Z,42.805,6.029,13.3004,4.60036,2470.287,2022-4-17T16:12:21Z
2022-04-17T14:13:45Z,42.805,6.029,13.2999,4.60037,2470.273,2022-4-17T16:15:24Z
2022-04-17T14:16:48Z,42.805,6.029,13.3000,4.60036,2470.297,2022-4-17T16:18:27Z
2022-04-17T14:19:51Z,42.805,6.029,13.3001,4.60036,2470.278,2022-4-17T16:21:30Z
2022-04-17T14:22:54Z,42.805,6.029,13.3000,4.60035,2470.31,2022-4-17T16:24:33Z
2022-04-17T14:25:58Z,42.805,6.029,13.3000,4.60036,2470.264,2022-4-17T16:27:36Z
2022-04-17T14:29:01Z,42.805,6.029,13.3002,4.60036,2470.24,2022-4-17T16:30:39Z
2022-04-17T14:32:04Z,42.805,6.029,13.3002,4.60036,2470.227,2022-4-17T16:33:42Z
2022-04-17T14:35:07Z,42.805,6.029,13.2998,4.60036,2470.227,2022-4-17T16:36:46Z
2022-04-17T14:38:10Z,42.805,6.029,13.2999,4.60038,2470.25,2022-4-17T16:39:49Z
2022-04-17T14:41:13Z,42.805,6.029,13.3003,4.60037,2470.25,2022-4-17T16:42:52Z
2022-04-17T14:44:16Z,42.805,6.029,13.3003,4.60039,2470.24,2022-4-17T16:45:55Z
2022-04-17T14:47:19Z,42.805,6.029,13.3003,4.60035,2470.25,2022-4-17T16:48:58Z
2022-04-17T14:50:23Z,42.805,6.029,13.2999,4.60038,2470.25,2022-4-17T16:52:01Z
2022-04-17T14:53:26Z,42.805,6.029,13.3002,4.60036,2470.283,2022-4-17T16:55:04Z
2022-04-17T14:56:29Z,42.805,6.029,13.3001,4.60036,2470.25,2022-4-17T16:58:07Z
2022-04-17T14:59:32Z,42.805,6.029,13.2999,4.60036,2470.273,2022-4-17T17:01:11Z
2022-04-17T15:02:35Z,42.805,6.029,13.3001,4.60039,2470.25,2022-4-17T17:04:14Z
2022-04-17T15:05:38Z,42.805,6.029,13.3003,4.60039,2470.287,2022-4-17T17:07:17Z
2022-04-17T15:08:41Z,42.805,6.029,13.3000,4.60038,2470.273,2022-4-17T17:10:20Z
2022-04-17T15:11:44Z,42.805,6.029,13.3004,4.60035,2470.25,2022-4-17T17:13:23Z
2022-04-17T15:14:48Z,42.805,6.029,13.2998,4.60037,2470.25,2022-4-17T17:16:26Z